Theta_e
341 345 348 350 350 350 349 349 349 350 351 353 353 353 353 352 351 350 349 350 350 351 351 350 352 351 349 349 348 348 348 346 346 346 346 346 346 345 345 345 344 341 346
342 346 347 349 350 349 349 349 349 350 351 352 352 352 352 351 351 350 350 350 351 351 349 349 352 350 349 348 348 347 347 345 345 345 345 346 345 344 344 344 344 342 344
343 345 346 348 349 350 349 349 350 350 351 352 351 351 351 350 350 349 349 349 349 350 349 348 349 349 347 347 346 345 345 344 343 343 342 337 338 343 343 342 343 343 342
344 345 345 347 348 349 349 349 350 351 351 351 350 350 349 349 349 349 348 348 348 350 349 349 348 347 346 345 344 343 343 342 341 340 335 336 337 342 342 341 341 340 341
343 345 345 347 347 349 349 348 349 349 349 349 349 349 349 349 348 348 347 347 348 348 348 348 347 345 344 341 341 341 340 339 338 335 332 334 335 338 340 339 337 336 336
340 345 344 344 346 348 348 348 348 348 347 347 347 348 348 348 348 347 346 346 347 346 347 347 345 343 341 339 338 338 337 336 334 331 332 335 334 338 337 334 333 333 333
336 340 343 342 345 347 349 348 347 347 346 346 346 346 346 348 348 347 345 345 345 345 346 345 342 341 339 338 337 335 334 333 327 327 328 330 332 335 334 333 332 331 331
335 336 340 344 345 346 347 346 343 343 345 345 345 346 346 346 345 345 345 344 343 342 342 341 340 339 337 336 334 332 331 330 325 326 328 329 332 334 333 331 328 328 328
334 335 336 339 345 344 342 342 340 340 340 341 340 338 338 339 341 342 342 342 342 342 340 339 338 335 336 335 333 330 329 328 320 322 326 327 331 331 331 328 328 327 327
331 331 332 332 331 333 335 336 336 337 336 336 335 330 329 336 338 338 339 341 340 340 339 338 335 334 335 333 331 329 328 326 318 318 324 325 330 329 329 327 327 326 326
328 329 329 328 327 328 333 336 337 338 334 334 335 334 331 333 335 335 337 338 338 337 336 335 333 332 332 331 330 328 326 319 318 317 322 330 329 330 328 327 326 325 325
324 325 329 329 326 326 332 334 334 334 332 331 332 331 330 332 333 334 334 335 335 335 334 333 331 331 328 325 325 325 319 319 318 316 321 328 327 328 328 326 326 325 325
324 324 328 329 328 328 327 328 330 332 331 329 329 329 329 327 331 333 332 332 331 333 329 327 325 324 323 322 318 318 318 318 317 316 323 326 328 328 328 326 326 325 324
324 324 327 326 328 328 327 327 325 327 327 325 325 328 323 323 327 330 331 328 328 327 324 323 318 319 319 319 318 317 317 318 317 318 321 325 327 327 327 327 326 325 324
323 323 327 328 324 323 323 323 323 324 325 325 325 325 323 324 327 330 329 327 326 325 322 319 316 316 317 317 317 317 317 318 317 319 319 326 327 327 327 327 326 324 324
323 322 327 328 327 324 325 323 323 322 323 323 323 325 324 327 330 329 327 325 324 323 320 317 314 314 317 317 316 317 317 317 317 316 318 321 325 326 327 326 325 325 323
323 321 323 327 326 323 324 322 325 323 325 321 323 323 326 328 330 328 326 323 321 318 317 314 312 312 314 317 316 317 317 317 316 315 316 317 320 323 325 326 325 324 324
320 320 321 326 322 320 318 321 323 324 325 326 324 323 324 328 329 327 324 320 318 315 314 314 312 311 313 316 315 316 316 317 316 315 316 316 316 318 322 324 325 325 323
320 320 320 320 319 319 319 321 324 324 325 327 327 325 325 326 326 323 321 319 315 314 314 313 311 312 312 314 314 314 313 315 315 317 315 315 315 315 316 322 323 323 324
321 321 320 320 320 322 323 322 322 322 323 326 327 326 324 323 322 320 318 316 316 313 311 312 311 310 312 314 316 313 312 312 315 315 315 316 315 315 315 317 318 319 322
320 319 319 318 318 320 321 321 318 319 321 323 325 327 324 322 321 318 318 316 316 311 312 313 312 310 309 311 309 309 309 311 312 313 314 315 315 316 315 316 317 317 319
319 319 319 318 318 320 320 320 320 320 321 322 324 324 326 324 321 318 319 316 315 313 313 314 313 311 311 312 310 309 305 308 311 313 313 315 314 317 316 316 316 317 317
317 317 318 317 318 319 319 319 318 319 320 319 320 322 323 325 323 319 320 318 317 315 316 316 314 314 310 310 312 309 303 304 307 308 311 314 314 314 316 316 316 317 317
317 318 319 320 317 318 319 317 317 316 316 318 320 321 322 324 324 321 320 321 320 318 317 317 315 314 313 311 307 310 309 308 306 302 307 312 314 313 314 315 316 317 317
319 319 320 319 319 318 317 317 317 315 316 318 319 319 320 320 321 322 322 319 319 320 318 318 314 312 312 313 308 307 308 310 308 305 302 304 306 311 314 314 315 316 317
319 318 317 316 316 318 316 315 315 315 315 313 317 317 318 319 318 319 321 320 319 319 318 317 317 315 312 313 313 310 309 308 308 307 303 304 304 305 309 311 312 314 316
Wind_Speed
4 7 13 12 12 12 15 19 17 15 16 18 20 22 24 23 23 22 21 19 18 18 20 21 21 21 21 22 21 20 20 19 20 20 20 22 23 23 23 20 19 16 21
9 10 14 13 13 14 13 16 19 17 18 19 20 22 21 22 22 21 20 20 20 20 22 22 22 22 23 24 21 20 20 19 19 19 21 23 23 23 22 21 20 18 21
11 11 13 15 16 14 13 14 18 19 18 19 20 20 21 22 22 21 20 19 19 21 22 22 22 23 24 22 21 20 20 20 19 19 19 11 13 22 22 20 20 21 21
11 10 11 14 14 15 14 14 15 18 19 18 18 19 18 19 19 19 19 19 20 20 21 23 23 23 23 21 21 21 21 20 19 17 9 9 11 21 21 20 20 20 20
9 12 10 15 15 13 14 15 15 17 20 20 20 20 21 20 20 19 18 19 20 21 21 23 24 23 21 21 20 20 19 18 16 11 8 8 9 16 19 19 19 18 17
8 10 11 15 14 14 14 15 15 16 16 19 20 20 21 22 21 21 19 20 20 20 22 23 25 23 20 20 19 19 19 18 13 8 10 13 10 18 18 18 17 18 18
7 7 8 14 15 16 16 16 16 15 15 17 20 20 22 21 23 22 22 20 19 19 20 23 22 21 20 20 20 18 16 14 10 11 10 10 10 18 17 17 17 18 18
9 7 6 12 13 14 17 17 17 17 15 16 18 20 17 19 17 19 18 19 20 19 21 21 20 19 19 20 19 17 16 15 10 11 10 8 15 17 17 17 17 17 17
7 7 6 6 8 10 10 13 14 15 17 12 11 16 9 14 12 15 18 17 18 21 21 18 20 19 20 21 19 17 16 15 9 8 9 6 15 17 16 17 17 17 17
4 5 6 6 6 5 4 9 7 12 20 24 22 9 4 1 8 10 16 18 19 21 20 18 18 18 22 21 20 18 17 16 8 7 6 6 16 18 17 17 16 17 17
3 4 5 6 5 5 5 7 12 21 23 24 27 29 23 7 9 12 11 17 19 19 18 18 17 19 21 20 19 18 16 6 7 4 5 16 16 19 19 17 16 17 17
6 5 5 5 5 5 5 7 7 11 10 10 12 19 12 13 11 13 8 16 16 17 18 17 16 19 16 9 9 13 6 6 5 4 5 16 18 19 19 18 17 16 16
6 4 8 6 5 6 4 4 3 4 5 4 9 14 10 7 7 6 5 6 7 14 8 12 11 9 11 9 6 6 7 6 4 2 8 16 18 18 18 17 17 17 17
7 7 7 7 6 6 4 3 4 4 5 6 7 12 8 6 5 10 6 7 8 7 7 8 7 9 10 10 9 9 8 6 3 3 8 15 17 19 18 17 17 17 17
8 7 9 8 7 5 6 4 4 4 5 6 7 8 7 8 8 10 9 8 7 7 7 6 7 8 9 9 9 10 8 7 5 4 3 11 13 16 18 17 17 17 16
8 8 9 9 8 8 7 8 6 6 6 6 7 10 13 9 12 12 11 8 7 7 7 9 8 8 8 9 8 9 9 7 6 5 4 7 11 13 17 17 17 17 16
10 9 10 10 8 8 7 6 5 5 6 7 7 10 12 12 11 12 11 8 7 6 7 7 7 6 7 8 10 8 8 8 6 6 5 4 6 10 11 15 16 17 17
8 10 9 9 8 7 6 7 5 5 5 6 7 7 12 11 14 13 11 9 8 7 7 8 8 7 5 8 7 7 7 7 7 5 5 4 4 4 7 11 13 15 15
10 11 10 9 9 7 6 5 4 4 4 4 7 8 12 9 17 12 10 9 9 8 8 7 3 8 6 6 7 5 5 5 7 7 6 5 6 4 4 8 11 11 14
10 10 10 8 9 7 5 4 2 2 2 2 5 10 10 9 12 10 8 8 9 8 5 5 6 3 5 8 8 5 4 3 4 5 7 5 5 5 5 6 6 7 12
10 11 12 11 9 7 4 3 3 2 1 2 3 11 11 10 9 8 8 8 9 9 9 7 4 6 3 4 6 4 4 2 3 3 3 4 6 5 5 5 5 4 7
16 13 12 10 11 7 5 3 2 3 1 2 4 5 8 12 10 8 10 10 10 9 8 7 6 3 3 6 4 5 3 2 2 4 3 5 7 6 7 7 8 8 6
15 14 13 10 11 11 9 4 3 4 3 2 3 4 5 11 12 11 10 11 9 9 9 9 7 7 5 3 6 5 4 4 4 3 6 5 6 5 7 8 9 9 9
16 12 12 11 10 9 11 8 7 4 4 4 4 4 5 8 12 13 9 9 10 6 9 8 5 6 5 8 1 1 3 6 4 2 1 7 8 9 10 8 10 11 11
17 16 13 14 14 11 10 12 9 7 3 2 3 6 6 4 11 11 11 7 6 5 5 8 6 5 3 6 4 4 2 2 3 3 3 3 2 6 9 9 9 9 11
16 15 15 16 15 12 9 9 12 11 8 4 6 6 6 5 4 8 8 9 6 6 6 5 5 6 4 2 7 5 5 5 4 4 2 4 4 4 9 8 9 9 9
Wind_Direction
201 159 159 159 148 149 143 133 131 127 123 124 127 134 138 138 134 134 134 133 129 126 126 125 122 127 125 123 121 114 109 110 110 111 110 110 108 105 99 93 91 95 98
159 177 165 161 159 161 156 142 138 137 136 134 134 135 137 137 135 136 136 135 132 129 130 127 125 128 128 122 117 114 113 108 106 108 112 109 108 107 103 99 98 98 96
167 174 173 169 164 162 160 150 144 145 144 140 138 138 142 140 139 139 139 137 134 133 134 133 129 128 126 119 118 115 115 112 108 104 99 105 108 108 103 98 98 96 95
167 171 177 175 171 164 161 154 148 145 143 143 141 141 143 139 140 141 141 140 138 138 138 134 129 129 126 118 116 115 112 107 104 100 98 101 107 111 106 99 102 103 101
163 173 179 177 175 174 161 156 155 155 154 153 154 152 148 149 145 146 146 145 144 143 143 137 130 131 125 122 118 113 110 103 97 98 101 101 101 102 96 97 93 94 93
159 174 181 178 179 174 167 163 164 161 160 159 157 157 153 151 151 149 150 149 151 152 146 139 133 134 129 120 115 113 106 101 99 100 93 94 97 108 109 104 109 111 106
157 171 183 181 182 177 176 175 170 164 165 166 160 159 156 156 154 153 153 153 152 147 143 132 136 133 126 119 118 111 108 108 103 89 89 95 109 116 117 118 117 119 118
156 170 174 186 186 186 183 185 184 175 171 170 166 152 157 147 151 147 148 147 146 144 131 135 137 127 124 124 122 118 115 107 99 101 95 98 121 121 121 120 122 121 114
139 150 154 164 179 193 206 198 193 191 188 167 141 94 134 148 147 150 146 149 144 134 131 137 133 129 134 133 127 122 115 111 97 107 108 122 138 128 131 127 127 127 124
124 147 152 143 159 164 183 207 189 135 125 127 112 96 68 248 140 181 155 152 145 135 130 134 130 131 136 136 131 126 117 111 108 114 116 130 141 135 134 133 130 130 127
143 166 147 150 153 155 140 137 163 154 156 157 143 152 175 202 185 202 184 150 150 135 133 136 127 137 137 133 129 125 117 118 116 118 131 142 148 141 137 134 135 135 133
187 184 165 147 156 142 137 135 147 160 171 176 160 158 172 166 179 205 185 156 144 136 135 133 127 140 132 133 128 121 124 120 120 127 136 150 152 143 137 142 140 135 131
180 167 174 155 153 150 146 132 141 146 149 145 157 163 174 156 175 185 190 159 142 138 142 135 125 138 140 139 129 133 128 126 130 127 154 158 153 144 143 146 143 140 137
180 180 159 152 150 144 144 152 135 141 150 154 166 167 166 172 173 175 174 161 152 148 147 154 138 138 142 139 138 135 130 144 134 129 158 162 153 152 149 151 147 147 144
181 176 165 153 156 159 158 146 151 165 174 170 172 171 171 185 182 168 168 163 156 149 144 150 135 135 137 136 144 140 142 143 134 143 133 155 155 158 153 158 153 152 152
175 175 166 161 164 167 175 165 171 177 179 180 180 179 186 189 183 178 163 160 158 154 154 150 154 141 142 143 142 150 145 145 144 133 142 160 159 163 159 164 162 161 159
184 163 167 163 163 168 168 167 169 175 175 187 192 181 183 191 177 169 161 155 160 153 148 132 140 136 138 148 153 153 153 156 147 145 145 148 163 165 164 167 172 171 168
160 171 162 161 159 158 166 168 173 177 181 185 191 200 194 206 182 168 164 161 156 146 149 151 151 137 135 145 148 155 157 154 153 145 144 145 150 152 173 173 181 180 178
172 165 162 152 158 160 148 161 149 162 186 194 202 180 191 182 150 151 163 155 149 155 158 153 140 143 146 135 137 136 138 155 164 160 154 161 161 162 157 192 188 189 185
173 167 153 151 152 144 133 122 120 127 147 173 176 171 146 134 138 148 139 145 147 158 139 137 150 123 142 142 138 133 128 143 157 177 174 167 171 179 180 182 199 202 197
174 165 162 154 157 144 143 143 168 146 110 90 82 124 129 130 138 146 146 150 155 163 160 160 133 144 96 132 103 61 54 73 178 186 172 171 185 189 201 191 199 208 211
175 173 164 162 162 155 153 127 109 110 105 65 87 102 137 153 152 166 161 161 171 161 156 164 145 133 116 169 131 129 131 120 235 212 182 193 204 200 212 208 205 211 211
178 177 170 162 162 169 167 124 96 85 86 82 102 127 159 161 163 173 171 165 170 171 174 171 159 165 152 191 166 146 137 194 135 179 205 202 193 205 221 222 218 214 215
179 171 166 168 166 165 163 158 162 183 168 197 171 147 149 178 159 166 171 159 167 170 179 178 159 166 155 183 179 278 121 140 162 188 205 215 205 207 217 221 224 220 219
170 172 170 178 183 179 171 168 167 180 157 136 147 155 157 168 152 148 167 134 143 146 180 171 157 143 155 175 175 140 126 93 108 141 170 206 215 216 223 218 222 221 221
169 172 172 176 183 181 174 167 167 170 176 170 180 184 167 154 138 140 146 167 166 139 163 160 148 147 171 149 206 183 169 167 169 148 147 204 196 216 218 219 218 222 222